TimeEST,TemperatureF,Dew PointF,Humidity,Sea Level PressureIn,VisibilityMPH,Wind Direction,Wind SpeedMPH,Gust SpeedMPH,PrecipitationIn,Events,Conditions,WindDirDegrees,DateUTC
12:51 AM,37.9,30.9,76,30.03,10.0,SSE,5.8,-,N/A,,Clear,160,2013-02-08 05:51:00
1:51 AM,37.9,30.9,76,29.99,10.0,SSE,5.8,-,N/A,,Mostly Cloudy,150,2013-02-08 06:51:00
2:51 AM,37.9,30.9,76,29.97,10.0,SSE,5.8,-,N/A,,Overcast,150,2013-02-08 07:51:00
3:51 AM,37.9,30.9,76,29.94,10.0,SSE,6.9,-,N/A,,Overcast,160,2013-02-08 08:51:00
4:51 AM,37.9,30.0,73,29.93,10.0,SSE,5.8,-,N/A,,Overcast,150,2013-02-08 09:51:00
5:51 AM,39.0,30.0,70,29.92,10.0,SSE,5.8,-,N/A,,Overcast,150,2013-02-08 10:51:00
6:51 AM,37.9,30.0,73,29.91,10.0,SSE,6.9,-,N/A,,Overcast,150,2013-02-08 11:51:00
7:51 AM,37.9,30.0,73,29.91,10.0,SE,3.5,-,N/A,,Overcast,140,2013-02-08 12:51:00
8:51 AM,39.0,30.9,73,29.89,10.0,SSE,4.6,-,N/A,,Overcast,150,2013-02-08 13:51:00
9:06 AM,39.2,32.0,75,29.84,10.0,SSE,3.5,-,N/A,,Overcast,150,2013-02-08 14:06:00
9:51 AM,41.0,32.0,70,29.87,10.0,SSW,4.6,-,0.00,Rain,Light Rain,200,2013-02-08 14:51:00
10:51 AM,39.0,36.0,89,29.87,3.0,Calm,Calm,-,0.04,Rain,Light Rain,0,2013-02-08 15:51:00
11:28 AM,39.2,37.4,93,29.83,6.0,Calm,Calm,-,0.02,Rain,Light Rain,0,2013-02-08 16:28:00
11:51 AM,41.0,36.0,82,29.87,8.0,West,8.1,-,0.04,Rain,Light Rain,260,2013-02-08 16:51:00
12:31 PM,41.0,35.6,81,29.82,10.0,WNW,6.9,-,0.00,,Overcast,290,2013-02-08 17:31:00
12:51 PM,39.9,36.0,86,29.87,7.0,Variable,4.6,-,0.00,Rain,Light Rain,0,2013-02-08 17:51:00
1:51 PM,36.0,33.1,89,29.90,4.0,NW,20.7,31.1,0.01,Rain,Light Rain,310,2013-02-08 18:51:00
2:03 PM,35.6,33.8,93,29.86,4.0,WNW,16.1,27.6,0.00,Rain,Light Rain,300,2013-02-08 19:03:00
2:23 PM,35.6,32.0,87,29.86,10.0,WNW,19.6,33.4,0.00,,Overcast,290,2013-02-08 19:23:00
2:51 PM,34.0,30.0,85,29.94,7.0,West,18.4,35.7,0.00,,Overcast,280,2013-02-08 19:51:00
3:02 PM,33.8,28.4,81,29.88,9.0,West,17.3,26.5,N/A,,Overcast,260,2013-02-08 20:02:00
3:51 PM,33.1,28.0,82,29.95,5.0,West,12.7,26.5,0.00,Snow,Light Snow,270,2013-02-08 20:51:00
4:51 PM,33.1,27.0,78,29.98,8.0,WNW,21.9,27.6,0.00,,Overcast,300,2013-02-08 21:51:00
5:23 PM,32.0,26.6,80,29.95,4.0,NW,23.0,34.5,0.00,Snow,Light Snow,310,2013-02-08 22:23:00
5:51 PM,30.9,25.0,79,30.02,4.0,WNW,13.8,20.7,0.00,Snow,Light Snow,290,2013-02-08 22:51:00
6:00 PM,30.2,24.8,80,29.97,2.5,WNW,20.7,29.9,0.00,Snow,Light Snow,300,2013-02-08 23:00:00
6:11 PM,30.2,24.8,80,29.98,1.8,WNW,20.7,31.1,0.00,Snow,Light Snow,300,2013-02-08 23:11:00
6:20 PM,30.2,24.8,80,29.98,2.0,WNW,13.8,25.3,0.00,Snow,Light Snow,290,2013-02-08 23:20:00
6:51 PM,30.0,24.1,79,30.07,3.0,WNW,17.3,29.9,0.01,Snow,Light Snow,300,2013-02-08 23:51:00
7:14 PM,30.2,23.0,75,30.01,2.0,WNW,15.0,25.3,0.00,Snow,Light Snow,300,2013-02-09 00:14:00
7:30 PM,30.2,23.0,75,30.01,4.0,WNW,13.8,19.6,0.00,Snow,Light Snow,300,2013-02-09 00:30:00
7:44 PM,28.4,23.0,80,30.02,2.0,WNW,13.8,25.3,0.00,Snow,Light Snow,300,2013-02-09 00:44:00
7:51 PM,28.9,24.1,82,30.09,2.5,WNW,11.5,24.2,0.00,Snow,Light Snow,290,2013-02-09 00:51:00
8:00 PM,28.4,23.0,80,30.03,3.0,WNW,16.1,21.9,0.00,Snow,Light Snow,300,2013-02-09 01:00:00
8:34 PM,28.4,23.0,80,30.05,2.5,WNW,18.4,24.2,0.01,Snow,Light Snow,300,2013-02-09 01:34:00
8:43 PM,28.4,23.0,80,30.05,3.0,NW,15.0,24.2,0.01,Snow,Light Snow,310,2013-02-09 01:43:00
8:51 PM,28.0,23.0,81,30.12,3.0,West,16.1,23.0,0.01,Snow,Light Snow,280,2013-02-09 01:51:00
9:51 PM,28.0,21.0,75,30.15,6.0,WNW,20.7,29.9,0.00,Snow,Light Snow,290,2013-02-09 02:51:00
10:25 PM,26.6,21.2,80,30.09,6.0,WNW,11.5,20.7,0.00,Snow,Light Snow,300,2013-02-09 03:25:00
10:51 PM,27.0,21.9,81,30.17,4.0,NW,12.7,18.4,0.01,Snow,Light Snow,310,2013-02-09 03:51:00
11:44 PM,26.6,19.4,74,30.12,6.0,NW,13.8,21.9,0.00,Snow,Light Snow,310,2013-02-09 04:44:00
11:51 PM,26.1,19.9,78,30.19,5.0,WNW,17.3,23.0,0.00,Snow,Light Snow,300,2013-02-09 04:51:00